[[{"header":{"parameterUnit":"m.s-1","parameterCategory":1,"la1":30.2991,"la2":30.254,"lo1":-89.0895,"lo2":-89.0444,"dy":0.0017,"dx":0.0017,"nx":28,"ny":28,"refTime":"2024-10-02T03:00:00:Z","depth":0,"parameterNumber":2,"parameterNumberName":"U-component_of_WINDS"},"data":[0,0,0,0,0,0,0,0,0,0,0,0,0,0,0,0,0,0,0,0,0,0,0,0,0,0,0,0,0,0,0,0,0,0,0,0,0,0,0,0,0,0,0,0,0,0,0,0,0,0,0,0,0,0,0,0,0,0,-4.5233,-4.5233,0,-4.5259,-4.526,-4.526,-4.5095,-4.509,-4.5086,-4.5081,-4.5109,-4.5114,-4.5119,0,0,0,0,0,0,0,0,0,0,0,0,0,-4.5041,-4.5046,-4.5233,-4.5233,-4.5233,-4.5259,-4.526,-4.526,-4.5096,-4.509,-4.5084,-4.5079,-4.5107,-4.5113,-4.5119,0,0,0,0,0,0,0,0,0,0,0,0,0,-4.5102,-4.5047,-4.5233,-4.5155,-4.5148,-4.5259,-4.526,-4.526,-4.5097,-4.509,-4.5083,-4.5076,-4.5105,-4.5113,-4.512,-4.5308,0,0,-4.5144,-4.5147,0,0,0,0,0,0,0,0,-4.5099,-4.5109,-4.5166,-4.516,-4.5153,-4.5167,-4.5202,-4.5276,-4.5099,-4.5116,-4.5081,-4.5073,-4.5134,-4.5139,-4.5159,-4.5309,-4.531,-4.5144,-4.5149,-4.5152,-4.5154,0,0,0,0,0,0,0,-4.5095,-4.5107,-4.5243,-4.5167,-4.5159,-4.5119,-4.512,-4.5215,-4.5164,-4.5114,-4.5102,-4.5108,-4.5129,-4.5152,-4.5159,-4.5311,-4.5144,-4.5151,-4.5156,-4.5159,-4.5618,-4.5625,0,0,0,0,0,0,-4.5101,-4.5105,-4.5242,-4.5244,-4.5108,-4.5128,-4.5129,-4.5169,-4.5163,-4.5155,-4.5114,-4.51,-4.5143,-4.515,-4.5159,-4.5378,-4.5152,-4.5159,-4.5164,-4.561,-4.562,-4.5628,0,0,0,0,0,0,-4.5097,-4.5115,-4.5241,-4.5171,-4.5184,-4.5139,-4.5186,-4.5174,-4.5196,-4.5162,-4.5152,-4.5147,-4.5137,-4.5148,-4.5272,-4.5377,-4.5163,-4.517,-4.5601,-4.5613,-4.5624,-4.582,0,0,0,0,0,0,-4.5093,-4.5114,-4.5185,-4.5174,-4.5189,-4.5354,-4.5192,-4.5179,-4.521,-4.5192,-4.5191,-4.5184,-4.5133,-4.5262,-4.528,-4.5384,-4.5176,-4.5592,-4.5607,-4.562,-4.5804,-4.5836,-4.5864,0,0,0,0,0,-4.5086,-4.5239,-4.5189,-4.5207,-4.5276,-4.5361,-4.5369,-4.5307,-4.5219,-4.529,-4.5268,-4.5184,-4.5363,-4.5276,-4.5295,-4.5403,-4.5585,-4.5602,-4.5619,-4.579,-4.583,-4.5864,0,0,0,0,0,0,-4.5262,-4.5236,-4.518,-4.5334,-4.5351,-4.5333,-4.5419,-4.5351,-4.5394,-4.5375,-4.5297,-4.5298,-4.5436,-4.5432,-4.5335,-4.5585,-4.5459,-4.5481,-4.5582,-4.562,-4.565,-4.5647,-4.5182,0,0,0,0,0,-4.5319,-4.539,-4.5363,-4.5501,-4.5513,-4.5466,-4.55,-4.5451,-4.5466,-4.5472,-4.5459,-4.5477,-4.5537,-4.5578,-4.5632,-4.5803,-4.58,-4.5887,-4.5917,-4.5942,-4.5961,-4.6052,-4.6091,-4.5684,-4.5684,-4.5684,0,0,-4.5437,-4.5431,-4.548,-4.5536,-4.5544,-4.562,-4.5472,-4.5558,-4.5614,-4.5485,-4.5601,-4.5594,-4.5608,-4.5757,-4.5822,-4.5758,-4.6074,-4.5964,-4.5984,-4.599,-4.6074,-4.6113,-4.6147,-4.5696,-4.5694,-4.5692,0,0,-4.5689,-4.5693,-4.5808,-4.5819,-4.5832,-4.58,-4.5829,-4.5822,-4.5811,-4.5927,-4.5832,-4.5898,-4.6004,-4.6018,-4.6039,-4.6302,-4.6226,-4.6322,-4.648,-4.6569,-4.6601,-4.6629,-4.6723,-4.6757,-4.6341,-4.6342,-4.6342,0,-4.5834,-4.5944,-4.5876,-4.5969,-4.5997,-4.5885,-4.6002,-4.6016,-4.6047,-4.6069,-4.5997,-4.6128,-4.613,-4.6281,-4.6345,-4.6366,-4.6396,-4.632,-4.6602,-4.663,-4.6655,-4.6743,-4.6779,-4.6353,-4.6352,-4.6351,-4.635,0,-4.6121,-4.6199,-4.6291,-4.6324,-4.6362,-4.6467,-4.6416,-4.6463,-4.6412,-4.6388,-4.6509,-4.6508,-4.6559,-4.6592,-4.6543,-4.6737,-4.6697,-4.6616,-4.6487,-4.6706,-4.6788,-4.6821,-4.637,-4.6365,-4.6362,-4.6359,0,0,-4.6482,-4.6478,-4.6513,-4.6527,-4.6535,-4.6595,-4.6696,-4.6747,-4.6789,-4.6815,-4.6897,-4.6991,-4.6916,-4.694,-4.6892,-4.6971,-4.7179,-4.6879,-4.6878,-4.6935,-4.7394,-4.7455,-4.7495,-4.713,-4.7136,-4.7141,-4.7393,0,-4.6729,-4.6899,-4.6843,-4.7016,-4.7088,-4.6984,-4.7072,-4.7087,-4.7069,-4.7128,-4.7106,-4.7174,-4.707,-4.7084,-4.7158,-4.7139,-4.727,-4.712,-4.7206,-4.721,-4.7204,-4.7538,-4.7602,-4.7839,-4.7424,-4.743,-4.7434,0,-4.7038,-4.7078,-4.7259,-4.7256,-4.7284,-4.7364,-4.7407,-4.7465,-4.7481,-4.7462,-4.7491,-4.7427,-4.7526,-4.7399,-4.7535,-4.7434,-4.7467,-4.7463,-4.7471,-4.7475,-4.7334,-4.7551,-4.7913,-4.7949,-4.7483,-4.7479,-4.7476,0,-4.7284,-4.7382,-4.7503,-4.7518,-4.7519,-4.7577,-4.758,-4.7589,-4.7624,-4.7663,-4.7685,-4.7735,-4.7762,-4.7803,-4.7754,-4.7666,-4.7898,-4.7767,-4.7885,-4.7887,-4.7937,-4.7934,-4.8309,-4.7961,-4.796,-4.7959,-4.7959,0,-4.7564,-4.7679,-4.7613,-4.7688,-4.7814,-4.7749,-4.7876,-4.7867,-4.7876,-4.7948,-4.7862,-4.7931,-4.7863,-4.7927,-4.789,-4.8009,-4.8022,-4.8009,-4.7998,-4.8016,-4.8018,-4.8035,-4.8017,-4.7969,-4.7967,-4.7965,-4.7963,0,-4.7858,-4.7819,-4.7944,-4.7935,-4.7935,-4.8029,-4.8021,-4.809,-4.8067,-4.8158,-4.8176,-4.8139,-4.821,-4.8166,-4.8237,-4.8212,-4.8368,-4.8334,-4.8362,-4.8353,-4.8474,-4.8463,-4.8872,-4.8923,-4.8543,-4.8546,-4.8549,0,-4.8039,-4.8125,-4.8126,-4.8168,-4.8177,-4.8245,-4.8281,-4.8221,-4.8262,-4.8288,-4.8355,-4.8418,-4.8465,-4.8583,-4.8562,-4.8617,-4.8584,-4.8723,-4.8591,-4.8608,-4.8585,-4.858,-4.8589,-4.875,-4.8754,-4.8758,-4.8761,0,-4.8364,-4.8341,-4.8395,-4.8445,-4.8491,-4.8526,-4.8555,-4.8595,-4.8535,-4.8586,-4.8657,-4.8694,-4.8767,-4.8832,-4.8878,-4.8881,-4.8813,-4.8803,-4.8833,-4.8852,-4.8865,-4.8859,-4.8434,-4.8793,-4.879,-4.8788,-4.8786,-4.8785,-4.8606,-4.8678,-4.8691,-4.8755,-4.8771,-4.8801,-4.8865,-4.8851,-4.8909,-4.8964,-4.8926,-4.9011,-4.9026,-4.9082,-4.9095,-4.9161,-4.9104,-4.9148,-4.9159,-4.917,-4.9187,-4.8856,-4.9169,-4.9168,-4.9167,-4.9166,-4.9166,0,-4.8926,-4.893,-4.899,-4.9034,-4.9085,-4.9016,-4.9045,-4.9093,-4.9169,-4.9189,-4.9238,-4.9321,-4.9384,-4.937,-4.9426,-4.9482,-4.9452,-4.9499,-4.9493,-4.9495,-4.9234,-4.9202,-4.9522,-4.9522,-4.9522,-4.9522,-4.9522,-4.9522,-4.9099,-4.9217,-4.9197,-4.9323,-4.9325,-4.9408,-4.9431,-4.9458,-4.9474,-4.9571,-4.9622,-4.9613,-4.962,-4.9677,-4.9732,-4.9726,-4.9751,-4.981,-4.9793,-4.9549,-4.9514,-4.948,-4.9449,-4.9816,-4.9817,-5.0048,-5.005,-5.0052]},{"header":{"parameterUnit":"m.s-1","parameterCategory":1,"la1":30.2991,"la2":30.254,"lo1":-89.0895,"lo2":-89.0444,"dy":0.0017,"dx":0.0017,"nx":28,"ny":28,"refTime":"2024-10-02T03:00:00:Z","depth":0,"parameterNumber":3,"parameterNumberName":"V-component_of_WINDS"},"data":[0,0,0,0,0,0,0,0,0,0,0,0,0,0,0,0,0,0,0,0,0,0,0,0,0,0,0,0,0,0,0,0,0,0,0,0,0,0,0,0,0,0,0,0,0,0,0,0,0,0,0,0,0,0,0,0,0,0,0.6322,0.6323,0,0.6349,0.635,0.635,0.6357,0.6357,0.6357,0.6356,0.6383,0.6384,0.6385,0,0,0,0,0,0,0,0,0,0,0,0,0,0.6277,0.6278,0.6322,0.6323,0.6323,0.6349,0.635,0.635,0.6357,0.6357,0.6357,0.6356,0.6383,0.6384,0.6385,0,0,0,0,0,0,0,0,0,0,0,0,0,0.63,0.6278,0.6322,0.633,0.6331,0.6349,0.635,0.635,0.6357,0.6357,0.6357,0.6356,0.6382,0.6384,0.6385,0.6398,0,0,0.6389,0.6389,0,0,0,0,0,0,0,0,0.6299,0.6302,0.6328,0.6329,0.633,0.635,0.6344,0.6366,0.6357,0.6347,0.6356,0.6356,0.6372,0.6374,0.638,0.6399,0.64,0.6389,0.639,0.639,0.6391,0,0,0,0,0,0,0,0.6297,0.63,0.6333,0.6329,0.633,0.6332,0.6335,0.6348,0.6361,0.6348,0.6348,0.6352,0.6373,0.6378,0.638,0.6401,0.6389,0.639,0.6391,0.6391,0.6434,0.6434,0,0,0,0,0,0,0.6294,0.6299,0.6332,0.6334,0.6314,0.6333,0.6336,0.6344,0.636,0.6363,0.6352,0.6352,0.6376,0.6379,0.6381,0.6399,0.639,0.6392,0.6392,0.6434,0.6434,0.6434,0,0,0,0,0,0,0.6293,0.6297,0.6331,0.6317,0.6321,0.6334,0.6342,0.6344,0.635,0.6363,0.6366,0.6355,0.6376,0.638,0.6394,0.64,0.6392,0.6393,0.6433,0.6434,0.6434,0.6432,0,0,0,0,0,0,0.6292,0.6297,0.6301,0.6317,0.6322,0.6343,0.6343,0.6345,0.6353,0.6353,0.6367,0.637,0.6376,0.6392,0.6395,0.6401,0.6394,0.6433,0.6433,0.6434,0.6432,0.6433,0.6433,0,0,0,0,0,0.629,0.6299,0.6302,0.6306,0.6328,0.6343,0.6346,0.6354,0.6353,0.6358,0.6367,0.6369,0.6399,0.6394,0.6397,0.6404,0.6432,0.6433,0.6434,0.6432,0.6433,0.6433,0,0,0,0,0,0,0.6283,0.6301,0.6304,0.6318,0.633,0.6345,0.6351,0.6355,0.6366,0.6366,0.6375,0.6378,0.6393,0.64,0.6394,0.6418,0.6416,0.6417,0.6413,0.6414,0.6414,0.6412,0.6395,0,0,0,0,0,0.6284,0.6295,0.631,0.6321,0.6327,0.6338,0.6345,0.635,0.6362,0.6367,0.6376,0.6387,0.64,0.6407,0.6419,0.6433,0.6437,0.644,0.644,0.6441,0.6442,0.6452,0.6453,0.6437,0.6437,0.6437,0,0,0.6284,0.6295,0.6301,0.632,0.6329,0.6341,0.6342,0.6353,0.6362,0.6368,0.6383,0.6391,0.6404,0.6419,0.6426,0.6425,0.6448,0.6442,0.6442,0.6443,0.6453,0.6454,0.6456,0.6437,0.6437,0.6437,0,0,0.629,0.63,0.6311,0.6321,0.6335,0.6343,0.6346,0.6361,0.6367,0.6382,0.6387,0.6398,0.6418,0.6427,0.6435,0.6448,0.645,0.6451,0.6455,0.6464,0.6465,0.6467,0.6472,0.6473,0.6452,0.6452,0.6452,0,0.6289,0.6306,0.6316,0.6328,0.6336,0.6344,0.6355,0.6364,0.6381,0.6387,0.6386,0.6413,0.6422,0.644,0.6444,0.6449,0.6453,0.6449,0.6464,0.6466,0.6467,0.6472,0.6474,0.6452,0.6452,0.6452,0.6452,0,0.6304,0.6317,0.6324,0.6341,0.6351,0.6362,0.6374,0.6382,0.6388,0.6396,0.6412,0.6424,0.6439,0.6443,0.6448,0.6463,0.6462,0.6463,0.646,0.6468,0.6473,0.6475,0.6452,0.6452,0.6452,0.6452,0,0,0.6305,0.633,0.6332,0.6341,0.6359,0.6368,0.6381,0.6396,0.6404,0.6416,0.6427,0.6445,0.6447,0.6455,0.6461,0.6469,0.648,0.6469,0.647,0.6471,0.6498,0.6497,0.6499,0.6483,0.6483,0.6483,0.6497,0,0.6314,0.6337,0.6347,0.6366,0.6378,0.6386,0.6397,0.641,0.6418,0.643,0.6439,0.6452,0.6453,0.6458,0.6467,0.6477,0.6486,0.6476,0.6493,0.6494,0.6489,0.6502,0.6501,0.6513,0.6499,0.6499,0.65,0,0.6327,0.6341,0.6361,0.6379,0.6384,0.6394,0.641,0.6421,0.6435,0.6441,0.6452,0.6458,0.6473,0.647,0.649,0.6484,0.6492,0.6498,0.6499,0.65,0.6497,0.6504,0.6517,0.6519,0.6503,0.6502,0.6502,0,0.6327,0.635,0.6366,0.6373,0.6394,0.6401,0.641,0.6424,0.6433,0.6447,0.6453,0.6468,0.6477,0.6488,0.6499,0.6496,0.6519,0.6517,0.6524,0.6524,0.6528,0.6527,0.6543,0.6533,0.6533,0.6533,0.6533,0,0.6336,0.6348,0.6366,0.6375,0.639,0.6401,0.6415,0.6425,0.6438,0.645,0.6458,0.6468,0.6482,0.6495,0.6503,0.6519,0.6522,0.6528,0.653,0.6527,0.6526,0.6532,0.6531,0.6533,0.6533,0.6533,0.6533,0,0.6337,0.635,0.6367,0.6386,0.6391,0.6401,0.6418,0.6427,0.6437,0.6452,0.6456,0.6472,0.6487,0.6499,0.6519,0.6525,0.6542,0.6544,0.6537,0.6538,0.6545,0.6544,0.6564,0.6568,0.6556,0.6556,0.6556,0,0.6342,0.6351,0.6372,0.6381,0.639,0.6404,0.6414,0.6426,0.6436,0.6455,0.6463,0.6479,0.6493,0.6518,0.6531,0.6547,0.6549,0.6555,0.6552,0.6549,0.655,0.6549,0.655,0.6556,0.6556,0.6556,0.6556,0,0.6349,0.6355,0.6369,0.6386,0.6398,0.6411,0.6425,0.6432,0.6447,0.6458,0.6475,0.6485,0.6507,0.6523,0.6541,0.6551,0.6556,0.6557,0.656,0.6557,0.6552,0.6555,0.6539,0.6556,0.6556,0.6556,0.6556,0.6556,0.6352,0.6362,0.6378,0.6394,0.6406,0.6419,0.643,0.6442,0.6456,0.6475,0.6482,0.6499,0.6515,0.6539,0.6549,0.6563,0.6563,0.6567,0.6568,0.6569,0.6569,0.6551,0.6567,0.6567,0.6567,0.6567,0.6567,0,0.636,0.6372,0.6386,0.6406,0.6419,0.6424,0.644,0.645,0.6465,0.648,0.6494,0.6514,0.6531,0.6546,0.6563,0.6572,0.6575,0.6576,0.6575,0.6577,0.6567,0.6563,0.6573,0.6573,0.6573,0.6573,0.6573,0.6573,0.6366,0.6383,0.6391,0.6415,0.6426,0.6444,0.6452,0.6465,0.6477,0.6499,0.6513,0.6523,0.6539,0.6557,0.6573,0.6577,0.6583,0.6584,0.6589,0.6579,0.6578,0.6577,0.6574,0.6585,0.6585,0.6598,0.6598,0.6598]}]]